Timeline UpdatesTrip UpdatesNews PostsPvt PostsTravel TipsAdmin PostsConv PostsFollowed PostsChat RequestsBlog PostsPNR Posts

Disclaimer
Search
 
 
Tue Sep 23, 2014 09:50:57 ISTHomeTrainsΣChainsAtlasPNRForumGalleryNewsFAQTripsMembersLoginFeedback
No Recent News for this Train
Other Trains in the News **new
Latest...
..
Mon Dec 30, 2013 (12:01AM)
⇐ Return Journey: Train# 19038

19037/Avadh Express

Time-Table HAS CHANGED.
Sep 17 (3:47PM)
Change Departure Station:
Change Arrival Station:
Post a Train Travel TipPost a Train Travel Tip **new
Post a Comment/Question/Picture/VideoPost a Comment/Question/Picture/Video
Pantry/Catering
✓ Pantry Car Avbl
✓ Catering Avbl
Loco/Rake Reversals
LJN/Lucknow Junction NER (6);
RSA - Rake Sharing
19037/19038 have RSA with 19039/19040.
Rake/Coach Composition
Wap 4 BRC shed-SLR-S15-S14-S13-S12-S11-S10-S9-S8-S7-S6-S5-S4-S3-S2-S1-PC-B2-B1-A1-GEN-GEN-SLR; Total 23 Coaches
Loco
BDTS-LJN : BRC WAP-4; LJN-GKP : GD WDM-3A ;
News    PNR    Forum    Time-Table    Availability    Fare Chart    Map    Arr/Dep History    Trips    Gallery    ΣChains    X/O    Timeline    
Travel Time: 39h 0m    64 halts    Distance: 1845 km    Avg Speed: 47 km/hr
Type: Mail/Express
Zone: WR/Western
Departs @ 22:40 (Avg on time)
Platform# 1
S TW F 
Mumbai Bandra Terminus/BDTS 
Arrives @ 13:40 +2 nights (Avg 3m late)
Platform# 7
S T TF 
Gorakhpur Junction/GKP 

64 halts. 291 intermediate Stations between Mumbai Bandra Terminus and Gorakhpur Junction

Show ALL intermediate Stations  Show Old Time-Table

#CodeStation NameX/OArrivesAvgDepartsAvgHaltPFDay#KmSpeedElevZoneAddress
1BDTSMumbai Bandra Terminus (5)»  -22:40+0110.0234mWRMumbai 400050, Maharashtra
2ADHMumbai Andheri (9)  22:56+122:58+22m816.24212mWRMumbai, Maharashtra
3BVIMumbai Borivali (8)  23:13 23:16+623:18+85 2m6118.76719mWRMumbai - 400092, Maharashtra
4BORBoisar (3)  00:19+1200:21+122m2287.06017mWRBoisar Tel.no-02525-266626, Maharashtra
5VAPIVapi (3)X  01:31+801:33+82m12157.26327mWRVapi, Gujarat
6BLValsad (3)X  01:58+502:00+72m22183.46515mWRValsad, Gujarat
7STSurat (4)  03:03+203:08+25m12252.26519mWRSurat 395001, Gujarat
8AKVAnkleshwar Junction (4)X  03:54+1103:56+122m12302.17319mWRAnkleshwar, Gujarat
9BRCVadodara Junction (7)X  05:02+1305:12+1310m32382.07036mWRVadodara 390005, Gujarat
10GDAGodhra Junction (3)  06:15+706:18+73m22455.878122mWRGodhra, Gujarat
11DHDDahod (3)  07:13 07:14+3307:15+332 1m32528.990313mWRDahod, Gujarat
12MGNMeghnagar (3)  07:37+3807:39+382m12562.174317mWRJhabua, Madhya Pradesh
13BMIBamnia (2)X  08:08+4208:10+422m12597.634392mWRBamnia, Madhya Pradesh
14RTMRatlam Junction (7)  09:30+1309:50+1520m62642.472495mWRRatlam, Madhya Pradesh
15KUHKhachrod (2)X  10:12 10:13+2110:14 10:15+212m22670.024497mWRUjjain, Madhya Pradesh
16NADNagda Junction (4)X  10:55 10:50+211:00 10:55+45m--2683.868468mWRNagda, Madhya Pradesh
17MEPMahidpur Road  11:14 11:10+1111:16 11:12+112m--2700.990493mWCRGogapur, Madhya Pradesh
18VMAVikramgarh Alot (2)X  11:33 11:28+1111:35 11:30+122m22724.873443mWCRKota Division, Madhya Pradesh
19CMUChau Mahla (3)  11:53 11:48+1211:55 11:50+122m22746.666426mWCRJhalawar, Rajasthan
20SVASuwasra (2)  12:08 12:04+1312:10 12:06+132m--2762.067450mWCRSuwasra, Madhya Pradesh
21SGZShamgarh (3)X  12:23 12:18+1312:25 12:20+132m--2775.465463mWCRMandsaur, Madhya Pradesh
22GOHGaroth (2)  12:33 12:30+1412:35 12:32+142m22786.285441mWCRMadhya Pradesh 458880, Madhya Pradesh
23BWMBhawani Mandi (3)X  12:53 12:48+1512:55 12:50+152m--2808.976384mWCRBhawani Mandi, Madhya Pradesh
24JHWJhalawar Road (3)  13:08 13:03+1613:10 13:05+162m--2825.374361mWCRJhalawar City, Rajasthan
25RMARamganj Mandi Junction (3)  13:20 13:15+1713:22 13:17+172m--2837.754358mWCRRamganj Mandi, Rajasthan
26MKXMorak (2)  13:32 13:27+1713:34 13:29+172m22846.881337mWCRMorak, Rajasthan
27DKNTDakaniya Talav (2)  14:13 14:08+2214:15 14:10+232m12899.622278mWCRKota, Rajasthan
28KOTAKota Junction (5)  14:40 14:35+1414:50 14:40+1610 5m12909.089256mWCRKota, Rajasthan
29LKELakheri (3)  15:23 15:21+3115:25 15:23+322m22969.555228mWCRBundi, Rajasthan
30IDGIndargarh Sumerganj Mandi (2)  15:35+3515:37+362m22980.578247mWCRIndargarh, Rajasthan
31SWMSawai Madhopur Junction (4)  16:25 16:05+2916:30 16:10+295m--21016.851266mWCRSawai Madhopur, Rajasthan
32GGCGangapur City (3)X  17:24 17:25+1917:25 17:30+231 5m--21080.768270mWCRGangapur, Rajasthan
33SMBJShri Mahabirji (3)  17:50 18:00+2717:52 18:02+272m221114.861240mWCRKarauli, Rajasthan
34HANHindaun City (2)  18:02 18:12+2518:04 18:14+262m--21125.028230mWCRKarauli, Rajasthan
35BXNBayana Junction (3)  19:20 19:25+319:25 19:30+55m121157.871198mWCRBayana, Rajasthan
36RBSRupbas (2)X  20:09 19:59+820:11 20:01+132m121192.057178mNCRJAGNER ROAD, Rajasthan
37FTSFatehpur Sikri (2)  20:31 20:16+1020:33 20:18+152m121206.250176mNCRAgra, Uttar Pradesh
38KLBKiraoli (1)  20:48 20:33+1520:50 20:35+162m121218.628174mNCRKiraoli, Uttar Pradesh
39IDHIdgah Agra Junction (3)  21:26 21:21+1821:28 21:23+272m121240.28168mNCRAgra, Uttar Pradesh
40AFAgra Fort (3)  21:45 21:40+2221:55 21:50+3110m121242.414170mNCRRakabganj, Uttar Pradesh
41TDLTundla Junction (5)XO  23:25+2723:35+3910m321265.333167mNCRDistt.Firozabad, Uttar Pradesh
42FZDFirozabad (4)X  00:05+3500:07+382m231281.857164mNCRFirozabad, Uttar Pradesh
43SKBShikohabad Junction (4)X  00:28+3500:30+412m231301.785166mNCRDistrict Firozabad, Uttar Pradesh
44ETWEtawah (5)X  01:09+4301:11+502m331357.170154mNCRDistt. Etawah, Uttar Pradesh
45BNTBharthana (3)XO  01:28+5201:30+582m331377.048147mNCRBharthana, Uttar Pradesh
46PHDPhaphund (4)X  02:15+4302:17+482m331413.336146mNCRdist. Auraiya, Uttar Pradesh
47CNBKanpur Central (10)  04:35+204:45+410m--31496.547128mNCRKANPUR-208 001, Uttar Pradesh
48ONUnnao Junction (5)X  05:06 05:07+2505:08 05:09+252m--31513.943129mNRUnnao, Uttar Pradesh
49LJNLucknow Junction NER (6)↵¶06:25+606:50+825m431567.712126mNERLucknow, Uttar Pradesh
50LCLucknow City (3)  07:14+507:16+92m--31572.527127mNERLucknow, Uttar Pradesh
51BNZBadshahnagar (2)  07:30+1007:35 07:32+95 2m--31578.826116mNERLucknow, Uttar Pradesh
52GTNRGomti Nagar (3)  07:41 07:42+1107:43 07:44+112m131583.047117mNERLucknow, Uttar Pradesh
53BBKBarabanki Junction (4)  08:10+1208:12+132m--31603.471122mNRPin-225001, Uttar Pradesh
54BUWBurhwal Junction (3)X  08:40 08:35+2008:42 08:37+202m--31630.469119mNERBarabanki, Uttar Pradesh
55JLDJarwal Road (2)X  09:00 08:51+2309:02 08:53+262m--31646.545112mNERBehraich, Uttar Pradesh
56CLJColonelGanj (2)  09:20 09:16+2809:22 09:18+292m--31663.847108mNERGonda, Uttar Pradesh
57GDGonda Junction (3)X  10:15 09:55+2010:25 10:05+1810m231692.773110mNERGonda 271001, Uttar Pradesh
58MURMankapur Junction (5)  10:48 10:28+2210:50 10:30+212m--31720.670104mNERDistrict Gonda, Uttar Pradesh
59MSWMaskanwa (2)  11:03 10:42+2311:05 10:44+232m--31734.633103mNERChhapaiya Rd, Uttar Pradesh
60SNCSwami Narayan Chhapia (2)11:13 10:52+1711:14 10:54+181 2m--31738.9-100mNERS Narayan Chpla, Uttar Pradesh
61BVBabhnan (2)  11:20 10:58+2811:22 11:00+282m--31750.362101mNERDistrict- Basti, Uttar Pradesh
62BSTBasti (4)  11:50 11:30+2311:55 11:35+235m231781.17190mNERBasti 272001, Uttar Pradesh
63KLDKhalilabad (3)O  12:18 12:00+2812:20 12:02+282m--31810.61386mNERKhalilabad- 272175, Uttar Pradesh
64MHHMaghar (3)  12:34 12:40+2112:36 12:42+222m--31819.15083mNERNH 28. Distt- SantKabirNagar- 272173, Uttar Pradesh
65SWASahjanwa (2)X  12:51 12:52+1712:53 12:54+192m--31827.42280mNERGorakhpur - 273209, Uttar Pradesh
66GKPGorakhpur Junction (10)•  13:40+3-731844.6-84mNERGorakhpur 273001, Uttar Pradesh
Scroll to Top
Scroll to Bottom